SCP
0 0 0 0 0 0 0 0 0 0 0 0 0 0 0 0 0 0 -0 0 0 0
0 0 0 0 0 0 0 0 0 0 0 0 -0 0 0 0 0 0 -0 0 0 -0
0 0 0 0 0 0 0 0 0 -0 0 -0 -0 0 0 0 0 0 0 -0 -0 0
0 0 0 0 0 0 0 0 0 -0 0 -0 0 0 0 0 0 0 0 0 0 0
0 0 0 0 0 0 0 0 0 0 -0 -0 0 0 0 0 0 0 0 -0 -0 0
0 0 0 0 0 0 0 -0 -0 0 -0 -0 -0 0 0 0 0 0 0 0 0 0
0 -0 0 0 -0 -0 -0 0 0 -0 -0 -0 -0 -0 -0 -0 0 0 0 0 0 -0
0 -0 -0 0 0 0 -0 0 -0 -0 -0 -0 -0 -0 -0 -0 -0 0 0 0 0 -0
-0 -0 -0 -0 0 -0 -0 -0 -0 0 0 -0 -0 -0 0 -0 0 0 0 0 0 0
-0 -0 -0 -0 -0 0 0 -0 -0 0 -0 0 0 0 -0 -0 0 0 0 0 0 0
-0 -0 -0 -0 -0 -0 0 -0 -0 0 -0 0 0 0 -0 -0 0 0 0 0 0 0
-0 0 -0 -0 -0 -0 -0 0 -0 0 0 0 0 0 0 0 0 0 0 0 0 0
-0 0 -0 -0 -0 -0 -0 -0 -0 0 -0 0 0 0 0 0 0 -0 0 0 0 -0
-0 -0 0 0 0 0 -0 -0 -0 0 0 0 0 0 -0 -0 0 0 0 0 0 -0
Wind_Speed_500mb
38 27 29 27 23 22 21 20 22 18 15 11 9 9 11 11 12 13 13 15 17 23
31 28 29 22 19 17 16 14 15 14 11 12 12 12 10 9 10 10 11 15 21 25
23 20 15 10 11 12 13 15 11 9 11 13 12 9 9 9 10 11 10 10 14 24
26 13 8 5 12 15 15 12 6 8 10 10 9 8 8 8 9 11 15 14 14 25
16 12 12 6 16 19 13 16 14 15 12 11 6 5 7 9 10 14 15 13 19 22
14 13 12 11 23 25 21 18 14 10 7 2 7 6 7 8 11 7 16 10 14 18
15 11 9 19 24 36 26 18 14 10 9 10 11 8 8 8 7 9 9 10 11 15
17 11 17 29 32 27 22 19 15 14 13 15 12 14 14 12 7 4 9 16 16 18
17 17 16 30 33 26 25 22 18 14 15 7 7 10 14 15 9 3 8 17 18 21
17 19 21 35 32 28 25 23 18 11 8 8 8 15 16 14 10 6 10 16 16 20
22 20 22 33 33 30 28 24 15 9 10 12 16 17 16 17 14 16 16 15 15 21
27 22 22 23 30 32 29 23 18 12 17 20 19 17 15 14 17 20 18 18 17 27
25 22 21 23 23 28 26 25 23 21 20 20 15 14 13 13 17 21 23 23 20 27
23 23 18 24 24 26 27 27 29 24 24 20 15 13 15 14 15 14 23 27 28 29
Wind_Direction_500mb
187 182 187 198 216 241 258 258 252 227 206 222 215 206 200 195 198 210 220 220 219 204
187 198 209 212 227 241 250 222 196 182 199 192 176 177 178 187 213 230 215 229 221 206
187 176 183 209 216 206 187 164 167 191 196 198 190 194 213 220 227 234 228 199 196 200
160 165 172 190 194 193 178 166 154 158 158 157 164 207 244 234 206 213 216 218 206 200
171 181 198 202 204 186 152 143 127 132 140 156 160 213 228 217 210 213 215 211 199 202
179 214 227 241 185 183 161 162 156 161 177 236 248 265 198 189 207 204 192 190 210 212
198 221 231 176 174 171 174 180 184 197 221 276 266 222 196 184 153 160 190 185 166 170
202 189 173 169 155 162 177 186 193 227 256 283 241 192 162 150 156 164 183 172 166 156
201 176 176 177 173 175 184 194 201 236 277 226 206 177 151 170 189 197 146 174 172 175
168 167 166 175 177 181 187 197 211 251 213 186 182 133 142 148 140 126 150 151 152 159
165 168 164 178 185 184 189 197 224 214 176 161 138 135 146 146 141 129 134 146 146 149
180 174 165 174 190 196 201 210 210 201 161 159 145 134 141 149 152 141 129 133 140 145
182 180 170 174 177 188 195 201 192 175 159 160 153 141 141 145 161 149 136 135 135 144
180 166 168 175 182 187 190 192 190 184 179 170 171 156 147 138 153 160 144 145 143 139
Wind_Speed_850mb
38 27 29 27 23 22 21 20 22 18 15 11 9 9 11 11 12 13 13 15 17 23
31 28 29 22 19 17 16 14 15 14 11 12 12 12 10 9 10 10 11 15 21 25
23 20 15 10 11 12 13 15 11 9 11 13 12 9 9 9 10 11 10 10 14 24
26 13 8 5 12 15 15 12 6 8 10 10 9 8 8 8 9 11 15 14 14 25
16 12 12 6 16 19 13 16 14 15 12 11 6 5 7 9 10 14 15 13 19 22
14 13 12 11 23 25 21 18 14 10 7 2 7 6 7 8 11 7 16 10 14 18
15 11 9 19 24 36 26 18 14 10 9 10 11 8 8 8 7 9 9 10 11 15
17 11 17 29 32 27 22 19 15 14 13 15 12 14 14 12 7 4 9 16 16 18
17 17 16 30 33 26 25 22 18 14 15 7 7 10 14 15 9 3 8 17 18 21
17 19 21 35 32 28 25 23 18 11 8 8 8 15 16 14 10 6 10 16 16 20
22 20 22 33 33 30 28 24 15 9 10 12 16 17 16 17 14 16 16 15 15 21
27 22 22 23 30 32 29 23 18 12 17 20 19 17 15 14 17 20 18 18 17 27
25 22 21 23 23 28 26 25 23 21 20 20 15 14 13 13 17 21 23 23 20 27
23 23 18 24 24 26 27 27 29 24 24 20 15 13 15 14 15 14 23 27 28 29
Wind_Direction_850mb
187 182 187 198 216 241 258 258 252 227 206 222 215 206 200 195 198 210 220 220 219 204
187 198 209 212 227 241 250 222 196 182 199 192 176 177 178 187 213 230 215 229 221 206
187 176 183 209 216 206 187 164 167 191 196 198 190 194 213 220 227 234 228 199 196 200
160 165 172 190 194 193 178 166 154 158 158 157 164 207 244 234 206 213 216 218 206 200
171 181 198 202 204 186 152 143 127 132 140 156 160 213 228 217 210 213 215 211 199 202
179 214 227 241 185 183 161 162 156 161 177 236 248 265 198 189 207 204 192 190 210 212
198 221 231 176 174 171 174 180 184 197 221 276 266 222 196 184 153 160 190 185 166 170
202 189 173 169 155 162 177 186 193 227 256 283 241 192 162 150 156 164 183 172 166 156
201 176 176 177 173 175 184 194 201 236 277 226 206 177 151 170 189 197 146 174 172 175
168 167 166 175 177 181 187 197 211 251 213 186 182 133 142 148 140 126 150 151 152 159
165 168 164 178 185 184 189 197 224 214 176 161 138 135 146 146 141 129 134 146 146 149
180 174 165 174 190 196 201 210 210 201 161 159 145 134 141 149 152 141 129 133 140 145
182 180 170 174 177 188 195 201 192 175 159 160 153 141 141 145 161 149 136 135 135 144
180 166 168 175 182 187 190 192 190 184 179 170 171 156 147 138 153 160 144 145 143 139